Year,Month,Day,Hour,Minute,Value (Times are PST for temperature in C)
2010,03,04,00,00,7.70
2010,03,04,00,01,7.70
2010,03,04,00,02,7.70
2010,03,04,00,03,7.70
2010,03,04,00,04,7.70
2010,03,04,00,05,7.70
2010,03,04,00,06,7.70
2010,03,04,00,07,7.70
2010,03,04,00,08,7.70
2010,03,04,00,09,7.70
2010,03,04,00,10,7.70
2010,03,04,00,11,7.70
2010,03,04,00,12,7.70
2010,03,04,00,13,7.70
2010,03,04,00,14,7.70
2010,03,04,00,15,7.70
2010,03,04,00,16,7.70
2010,03,04,00,17,7.70
2010,03,04,00,18,7.70
2010,03,04,00,19,7.70
2010,03,04,00,20,7.70
2010,03,04,00,21,7.70
2010,03,04,00,22,7.60
2010,03,04,00,23,7.60
2010,03,04,00,24,7.60
2010,03,04,00,25,7.60
2010,03,04,00,26,7.60
2010,03,04,00,27,7.60
2010,03,04,00,28,7.60
2010,03,04,00,29,7.60
2010,03,04,00,30,7.60
2010,03,04,00,31,7.60
2010,03,04,00,32,7.60
2010,03,04,00,33,7.60
2010,03,04,00,34,7.60
2010,03,04,00,35,7.60
2010,03,04,00,36,7.60
2010,03,04,00,37,7.60
2010,03,04,00,38,7.60
2010,03,04,00,39,7.50
2010,03,04,00,40,7.50
2010,03,04,00,41,7.50
2010,03,04,00,42,7.50
2010,03,04,00,43,7.50
2010,03,04,00,44,7.50
2010,03,04,00,45,7.50
2010,03,04,00,46,7.50
2010,03,04,00,47,7.50
2010,03,04,00,48,7.50
2010,03,04,00,49,7.50
2010,03,04,00,50,7.50
2010,03,04,00,51,7.50
2010,03,04,00,52,7.40
2010,03,04,00,53,7.40
2010,03,04,00,54,7.40
2010,03,04,00,55,7.40
2010,03,04,00,56,7.40
2010,03,04,00,57,7.40
2010,03,04,00,58,7.40
2010,03,04,00,59,7.40
2010,03,04,01,00,7.40
2010,03,04,01,01,7.40
2010,03,04,01,02,7.40
2010,03,04,01,03,7.40
2010,03,04,01,04,7.40
2010,03,04,01,05,7.40
2010,03,04,01,06,7.40
2010,03,04,01,07,7.40
2010,03,04,01,08,7.40
2010,03,04,01,09,7.40
2010,03,04,01,10,7.40
2010,03,04,01,11,7.30
2010,03,04,01,12,7.30
2010,03,04,01,13,7.40
2010,03,04,01,14,7.40
2010,03,04,01,15,7.40
2010,03,04,01,16,7.40
2010,03,04,01,17,7.40
2010,03,04,01,18,7.40
2010,03,04,01,19,7.40
2010,03,04,01,20,7.40
2010,03,04,01,21,7.40
2010,03,04,01,22,7.40
2010,03,04,01,23,7.40
2010,03,04,01,24,7.40
2010,03,04,01,25,7.40
2010,03,04,01,26,7.40
2010,03,04,01,27,7.40
2010,03,04,01,28,7.30
2010,03,04,01,29,7.30
2010,03,04,01,30,7.30
2010,03,04,01,31,7.30
2010,03,04,01,32,7.30
2010,03,04,01,33,7.30
2010,03,04,01,34,7.30
2010,03,04,01,35,7.30
2010,03,04,01,36,7.30
2010,03,04,01,37,7.30
2010,03,04,01,38,7.30
2010,03,04,01,39,7.30
2010,03,04,01,40,7.30
2010,03,04,01,41,7.30
2010,03,04,01,42,7.30
2010,03,04,01,43,7.30
2010,03,04,01,44,7.30
2010,03,04,01,45,7.30
2010,03,04,01,46,7.30
2010,03,04,01,47,7.30
2010,03,04,01,48,7.30
2010,03,04,01,49,7.30
2010,03,04,01,50,7.30
2010,03,04,01,51,7.30
2010,03,04,01,52,7.30
2010,03,04,01,53,7.30
2010,03,04,01,54,7.30
2010,03,04,01,55,7.30
2010,03,04,01,56,7.30
2010,03,04,01,57,7.30
2010,03,04,01,58,7.30
2010,03,04,01,59,7.30
2010,03,04,02,00,7.30
2010,03,04,02,01,7.30
2010,03,04,02,02,7.30
2010,03,04,02,03,7.30
2010,03,04,02,04,7.30
2010,03,04,02,05,7.30
2010,03,04,02,06,7.30
2010,03,04,02,07,7.30
2010,03,04,02,08,7.30
2010,03,04,02,09,7.30
2010,03,04,02,10,7.30
2010,03,04,02,11,7.30
2010,03,04,02,12,7.30
2010,03,04,02,13,7.30
2010,03,04,02,14,7.30
2010,03,04,02,15,7.30
2010,03,04,02,16,7.30
2010,03,04,02,17,7.30
2010,03,04,02,18,7.30
2010,03,04,02,19,7.30
2010,03,04,02,20,7.30
2010,03,04,02,21,7.30
2010,03,04,02,22,7.30
2010,03,04,02,23,7.20
2010,03,04,02,24,7.20
2010,03,04,02,25,7.20
2010,03,04,02,26,7.20
2010,03,04,02,27,7.20
2010,03,04,02,28,7.20
2010,03,04,02,29,7.10
2010,03,04,02,30,7.10
2010,03,04,02,31,7.10
2010,03,04,02,32,7.10
2010,03,04,02,33,7.10
2010,03,04,02,34,7.10
2010,03,04,02,35,7.00
2010,03,04,02,36,7.00
2010,03,04,02,37,7.00
2010,03,04,02,38,7.00
2010,03,04,02,39,7.00
2010,03,04,02,40,7.00
2010,03,04,02,41,6.90
2010,03,04,02,42,6.90
2010,03,04,02,43,6.90
2010,03,04,02,44,6.90
2010,03,04,02,45,6.90
2010,03,04,02,46,6.80
2010,03,04,02,47,6.80
2010,03,04,02,48,6.80
2010,03,04,02,49,6.80
2010,03,04,02,50,6.80
2010,03,04,02,51,6.80
2010,03,04,02,52,6.70
2010,03,04,02,53,6.70
2010,03,04,02,54,6.70
2010,03,04,02,55,6.70
2010,03,04,02,56,6.70
2010,03,04,02,57,6.60
2010,03,04,02,58,6.60
2010,03,04,02,59,6.60
2010,03,04,03,00,6.60
2010,03,04,03,01,6.60
2010,03,04,03,02,6.60
2010,03,04,03,03,6.60
2010,03,04,03,04,6.60
2010,03,04,03,05,6.60
2010,03,04,03,06,6.60
2010,03,04,03,07,6.60
2010,03,04,03,08,6.60
2010,03,04,03,09,6.60
2010,03,04,03,10,6.60
2010,03,04,03,11,6.60
2010,03,04,03,12,6.60
2010,03,04,03,13,6.60
2010,03,04,03,14,6.60
2010,03,04,03,15,6.50
2010,03,04,03,16,6.40
2010,03,04,03,17,6.40
2010,03,04,03,18,6.40
2010,03,04,03,19,6.40
2010,03,04,03,20,6.40
2010,03,04,03,21,6.40
2010,03,04,03,22,6.40
2010,03,04,03,23,6.40
2010,03,04,03,24,6.40
2010,03,04,03,25,6.40
2010,03,04,03,26,6.40
2010,03,04,03,27,6.40
2010,03,04,03,28,6.40
2010,03,04,03,29,6.40
2010,03,04,03,30,6.40
2010,03,04,03,31,6.40
2010,03,04,03,32,6.40
2010,03,04,03,33,6.40
2010,03,04,03,34,6.40
2010,03,04,03,35,6.40
2010,03,04,03,36,6.40
2010,03,04,03,37,6.40
2010,03,04,03,38,6.40
2010,03,04,03,39,6.40
2010,03,04,03,40,6.40
2010,03,04,03,41,6.40
2010,03,04,03,42,6.40
2010,03,04,03,43,6.40
2010,03,04,03,44,6.40
2010,03,04,03,45,6.40
2010,03,04,03,46,6.40
2010,03,04,03,47,6.40
2010,03,04,03,48,6.40
2010,03,04,03,49,6.40
2010,03,04,03,50,6.40
2010,03,04,03,51,6.40
2010,03,04,03,52,6.40
2010,03,04,03,53,6.30
2010,03,04,03,54,6.30
2010,03,04,03,55,6.30
2010,03,04,03,56,6.30
2010,03,04,03,57,6.20
2010,03,04,03,58,6.20
2010,03,04,03,59,6.20
2010,03,04,04,00,6.20
2010,03,04,04,01,6.20
2010,03,04,04,02,6.20
2010,03,04,04,03,6.20
2010,03,04,04,04,6.10
2010,03,04,04,05,6.10
2010,03,04,04,06,6.10
2010,03,04,04,07,6.10
2010,03,04,04,08,6.10
2010,03,04,04,09,6.00
2010,03,04,04,10,6.00
2010,03,04,04,11,6.00
2010,03,04,04,12,6.00
2010,03,04,04,13,5.90
2010,03,04,04,14,5.90
2010,03,04,04,15,5.90
2010,03,04,04,16,5.80
2010,03,04,04,17,5.80
2010,03,04,04,18,5.80
2010,03,04,04,19,5.70
2010,03,04,04,20,5.70
2010,03,04,04,21,5.70
2010,03,04,04,22,5.70
2010,03,04,04,23,5.70
2010,03,04,04,24,5.70
2010,03,04,04,25,5.70
2010,03,04,04,26,5.70
2010,03,04,04,27,5.70
2010,03,04,04,28,5.70
2010,03,04,04,29,5.70
2010,03,04,04,30,5.70
2010,03,04,04,31,5.70
2010,03,04,04,32,5.70
2010,03,04,04,33,5.70
2010,03,04,04,34,5.70
2010,03,04,04,35,5.70
2010,03,04,04,36,5.70
2010,03,04,04,37,5.70
2010,03,04,04,38,5.70
2010,03,04,04,39,5.70
2010,03,04,04,40,5.70
2010,03,04,04,41,5.60
2010,03,04,04,42,5.60
2010,03,04,04,43,5.60
2010,03,04,04,44,5.60
2010,03,04,04,45,5.60
2010,03,04,04,46,5.60
2010,03,04,04,47,5.60
2010,03,04,04,48,5.50
2010,03,04,04,49,5.50
2010,03,04,04,50,5.50
2010,03,04,04,51,5.40
2010,03,04,04,52,5.40
2010,03,04,04,53,5.30
2010,03,04,04,54,5.30
2010,03,04,04,55,5.30
2010,03,04,04,56,5.30
2010,03,04,04,57,5.30
2010,03,04,04,58,5.30
2010,03,04,04,59,5.30
2010,03,04,05,00,5.30
2010,03,04,05,01,5.30
2010,03,04,05,02,5.20
2010,03,04,05,03,5.20
2010,03,04,05,04,5.20
2010,03,04,05,05,5.20
2010,03,04,05,06,5.10
2010,03,04,05,07,5.10
2010,03,04,05,08,5.10
2010,03,04,05,09,5.10
2010,03,04,05,10,5.10
2010,03,04,05,11,5.10
2010,03,04,05,12,5.10
2010,03,04,05,13,5.10
2010,03,04,05,14,5.10
2010,03,04,05,15,5.10
2010,03,04,05,16,5.10
2010,03,04,05,17,5.10
2010,03,04,05,18,5.10
2010,03,04,05,19,5.10
2010,03,04,05,20,5.10
2010,03,04,05,21,5.10
2010,03,04,05,22,5.10
2010,03,04,05,23,5.10
2010,03,04,05,24,5.10
2010,03,04,05,25,5.10
2010,03,04,05,26,5.10
2010,03,04,05,27,5.10
2010,03,04,05,28,5.10
2010,03,04,05,29,5.10
2010,03,04,05,30,5.10
2010,03,04,05,31,5.00
2010,03,04,05,32,4.90
2010,03,04,05,33,4.90
2010,03,04,05,34,4.90
2010,03,04,05,35,4.90
2010,03,04,05,36,4.90
2010,03,04,05,37,4.90
2010,03,04,05,38,5.00
2010,03,04,05,39,5.10
2010,03,04,05,40,5.10
2010,03,04,05,41,5.10
2010,03,04,05,42,5.10
2010,03,04,05,43,5.10
2010,03,04,05,44,5.10
2010,03,04,05,45,5.10
2010,03,04,05,46,5.10
2010,03,04,05,47,5.10
2010,03,04,05,48,5.10
2010,03,04,05,49,5.10
2010,03,04,05,50,5.20
2010,03,04,05,51,5.20
2010,03,04,05,52,5.20
2010,03,04,05,53,5.20
2010,03,04,05,54,5.20
2010,03,04,05,55,5.20
2010,03,04,05,56,5.10
2010,03,04,05,57,5.10
2010,03,04,05,58,5.10
2010,03,04,05,59,5.10
2010,03,04,06,00,5.10
2010,03,04,06,01,4.90
2010,03,04,06,02,4.90
2010,03,04,06,03,4.90
2010,03,04,06,04,4.90
2010,03,04,06,05,4.90
2010,03,04,06,06,4.90
2010,03,04,06,07,4.90
2010,03,04,06,08,4.90
2010,03,04,06,09,4.90
2010,03,04,06,10,4.90
2010,03,04,06,11,4.80
2010,03,04,06,12,4.80
2010,03,04,06,13,4.80
2010,03,04,06,14,4.80
2010,03,04,06,15,4.70
2010,03,04,06,16,4.70
2010,03,04,06,17,4.70
2010,03,04,06,18,4.70
2010,03,04,06,19,4.60
2010,03,04,06,20,4.60
2010,03,04,06,21,4.60
2010,03,04,06,22,4.60
2010,03,04,06,23,4.60
2010,03,04,06,24,4.60
2010,03,04,06,25,4.50
2010,03,04,06,26,4.50
2010,03,04,06,27,4.50
2010,03,04,06,28,4.50
2010,03,04,06,29,4.50
2010,03,04,06,30,4.40
2010,03,04,06,31,4.40
2010,03,04,06,32,4.40
2010,03,04,06,33,4.40
2010,03,04,06,34,4.40
2010,03,04,06,35,4.40
2010,03,04,06,36,4.40
2010,03,04,06,37,4.40
2010,03,04,06,38,4.40
2010,03,04,06,39,4.30
2010,03,04,06,40,4.30
2010,03,04,06,41,4.30
2010,03,04,06,42,4.30
2010,03,04,06,43,4.30
2010,03,04,06,44,4.30
2010,03,04,06,45,4.30
2010,03,04,06,46,4.30
2010,03,04,06,47,4.30
2010,03,04,06,48,4.40
2010,03,04,06,49,4.40
2010,03,04,06,50,4.40
2010,03,04,06,51,4.50
2010,03,04,06,52,4.50
2010,03,04,06,53,4.50
2010,03,04,06,54,4.50
2010,03,04,06,55,4.50
2010,03,04,06,56,4.50
2010,03,04,06,57,4.40
2010,03,04,06,58,4.40
2010,03,04,06,59,4.40
2010,03,04,07,00,4.30
2010,03,04,07,01,4.30
2010,03,04,07,02,4.30
2010,03,04,07,03,4.30
2010,03,04,07,04,4.30
2010,03,04,07,05,4.20
2010,03,04,07,06,4.20
2010,03,04,07,07,4.20
2010,03,04,07,08,4.20
2010,03,04,07,09,4.10
2010,03,04,07,10,4.10
2010,03,04,07,11,4.10
2010,03,04,07,12,4.00
2010,03,04,07,13,4.00
2010,03,04,07,14,4.00
2010,03,04,07,15,3.90
2010,03,04,07,16,3.90
2010,03,04,07,17,3.90
2010,03,04,07,18,3.90
2010,03,04,07,19,3.90
2010,03,04,07,20,3.80
2010,03,04,07,21,3.80
2010,03,04,07,22,3.80
2010,03,04,07,23,3.80
2010,03,04,07,24,3.80
2010,03,04,07,25,3.90
2010,03,04,07,26,4.00
2010,03,04,07,27,4.00
2010,03,04,07,28,4.10
2010,03,04,07,29,4.20
2010,03,04,07,30,4.20
2010,03,04,07,31,4.30
2010,03,04,07,32,4.40
2010,03,04,07,33,4.40
2010,03,04,07,34,4.50
2010,03,04,07,35,4.50
2010,03,04,07,36,4.50
2010,03,04,07,37,4.60
2010,03,04,07,38,4.60
2010,03,04,07,39,4.60
2010,03,04,07,40,4.70
2010,03,04,07,41,4.80
2010,03,04,07,42,4.80
2010,03,04,07,43,4.80
2010,03,04,07,44,4.90
2010,03,04,07,45,5.00
2010,03,04,07,46,5.10
2010,03,04,07,47,5.10
2010,03,04,07,48,5.20
2010,03,04,07,49,5.30
2010,03,04,07,50,5.30
2010,03,04,07,51,5.40
2010,03,04,07,52,5.40
2010,03,04,07,53,5.40
2010,03,04,07,54,5.40
2010,03,04,07,55,5.30
2010,03,04,07,56,5.40
2010,03,04,07,57,5.40
2010,03,04,07,58,5.40
2010,03,04,07,59,5.40
2010,03,04,08,00,5.40
2010,03,04,08,01,5.40
2010,03,04,08,02,5.50
2010,03,04,08,03,5.50
2010,03,04,08,04,5.50
2010,03,04,08,05,5.50
2010,03,04,08,06,5.60
2010,03,04,08,07,5.60
2010,03,04,08,08,5.70
2010,03,04,08,09,5.70
2010,03,04,08,10,5.70
2010,03,04,08,11,5.80
2010,03,04,08,12,5.80
2010,03,04,08,13,5.80
2010,03,04,08,14,5.80
2010,03,04,08,15,5.80
2010,03,04,08,16,5.90
2010,03,04,08,17,5.90
2010,03,04,08,18,5.90
2010,03,04,08,19,5.90
2010,03,04,08,20,5.90
2010,03,04,08,21,6.00
2010,03,04,08,22,6.00
2010,03,04,08,23,6.00
2010,03,04,08,24,6.00
2010,03,04,08,25,6.00
2010,03,04,08,26,6.00
2010,03,04,08,27,6.00
2010,03,04,08,28,6.00
2010,03,04,08,29,6.00
2010,03,04,08,30,6.00
2010,03,04,08,31,6.00
2010,03,04,08,32,6.00
2010,03,04,08,33,6.00
2010,03,04,08,34,6.00
2010,03,04,08,35,6.00
2010,03,04,08,36,6.00
2010,03,04,08,37,6.10
2010,03,04,08,38,6.20
2010,03,04,08,39,6.20
2010,03,04,08,40,6.20
2010,03,04,08,41,6.30
2010,03,04,08,42,6.30
2010,03,04,08,43,6.40
2010,03,04,08,44,6.40
2010,03,04,08,45,6.40
2010,03,04,08,46,6.50
2010,03,04,08,47,6.60
2010,03,04,08,48,6.60
2010,03,04,08,49,6.60
2010,03,04,08,50,6.70
2010,03,04,08,51,6.70
2010,03,04,08,52,6.70
2010,03,04,08,53,6.80
2010,03,04,08,54,6.80
2010,03,04,08,55,6.80
2010,03,04,08,56,6.90
2010,03,04,08,57,6.90
2010,03,04,08,58,6.90
2010,03,04,08,59,7.00
2010,03,04,09,00,7.00
2010,03,04,09,01,7.00
2010,03,04,09,02,7.10
2010,03,04,09,03,7.00
2010,03,04,09,04,7.00
2010,03,04,09,05,7.00
2010,03,04,09,06,7.10
2010,03,04,09,07,7.10
2010,03,04,09,08,7.10
2010,03,04,09,09,7.20
2010,03,04,09,10,7.20
2010,03,04,09,11,7.20
2010,03,04,09,12,7.20
2010,03,04,09,13,7.20
2010,03,04,09,14,7.20
2010,03,04,09,15,7.30
2010,03,04,09,16,7.30
2010,03,04,09,17,7.30
2010,03,04,09,18,7.30
2010,03,04,09,19,7.30
2010,03,04,09,20,7.30
2010,03,04,09,21,7.30
2010,03,04,09,22,7.30
2010,03,04,09,23,7.40
2010,03,04,09,24,7.40
2010,03,04,09,25,7.50
2010,03,04,09,26,7.50
2010,03,04,09,27,7.50
2010,03,04,09,28,7.60
2010,03,04,09,29,7.60
2010,03,04,09,30,7.60
2010,03,04,09,31,7.60
2010,03,04,09,32,7.70
2010,03,04,09,33,7.70
2010,03,04,09,34,7.70
2010,03,04,09,35,7.70
2010,03,04,09,36,7.70
2010,03,04,09,37,7.70
2010,03,04,09,38,7.70
2010,03,04,09,39,7.70
2010,03,04,09,40,7.70
2010,03,04,09,41,7.70
2010,03,04,09,42,7.70
2010,03,04,09,43,7.70
2010,03,04,09,44,7.70
2010,03,04,09,45,7.70
2010,03,04,09,46,7.70
2010,03,04,09,47,7.80
2010,03,04,09,48,7.80
2010,03,04,09,49,7.80
2010,03,04,09,50,7.80
2010,03,04,09,51,7.90
2010,03,04,09,52,7.90
2010,03,04,09,53,7.90
2010,03,04,09,54,7.90
2010,03,04,09,55,7.90
2010,03,04,09,56,7.90
2010,03,04,09,57,7.90
2010,03,04,09,58,7.90
2010,03,04,09,59,7.90
2010,03,04,10,00,8.00
2010,03,04,10,01,8.00
2010,03,04,10,02,8.10
2010,03,04,10,03,8.10
2010,03,04,10,04,8.10
2010,03,04,10,05,8.10
2010,03,04,10,06,8.20
2010,03,04,10,07,8.20
2010,03,04,10,08,8.20
2010,03,04,10,09,8.20
2010,03,04,10,10,8.20
2010,03,04,10,11,8.20
2010,03,04,10,12,8.30
2010,03,04,10,13,8.30
2010,03,04,10,14,8.30
2010,03,04,10,15,8.30
2010,03,04,10,16,8.30
2010,03,04,10,17,8.30
2010,03,04,10,18,8.40
2010,03,04,10,19,8.40
2010,03,04,10,20,8.50
2010,03,04,10,21,8.50
2010,03,04,10,22,8.50
2010,03,04,10,23,8.60
2010,03,04,10,24,8.60
2010,03,04,10,25,8.60
2010,03,04,10,26,8.60
2010,03,04,10,27,8.60
2010,03,04,10,28,8.60
2010,03,04,10,29,8.70
2010,03,04,10,30,8.60
2010,03,04,10,31,8.60
2010,03,04,10,32,8.60
2010,03,04,10,33,8.60
2010,03,04,10,34,8.70
2010,03,04,10,35,8.70
2010,03,04,10,36,8.70
2010,03,04,10,37,8.80
2010,03,04,10,38,8.80
2010,03,04,10,39,8.80
2010,03,04,10,40,8.90
2010,03,04,10,41,8.80
2010,03,04,10,42,8.80
2010,03,04,10,43,8.80
2010,03,04,10,44,8.80
2010,03,04,10,45,8.80
2010,03,04,10,46,8.80
2010,03,04,10,47,8.80
2010,03,04,10,48,8.90
2010,03,04,10,49,8.90
2010,03,04,10,50,8.80
2010,03,04,10,51,8.80
2010,03,04,10,52,8.80
2010,03,04,10,53,8.80
2010,03,04,10,54,8.70
2010,03,04,10,55,8.80
2010,03,04,10,56,8.90
2010,03,04,10,57,8.90
2010,03,04,10,58,9.00
2010,03,04,10,59,9.00
2010,03,04,11,00,9.10
2010,03,04,11,01,9.10
2010,03,04,11,02,9.20
2010,03,04,11,03,9.20
2010,03,04,11,04,9.20
2010,03,04,11,05,9.20
2010,03,04,11,06,9.20
2010,03,04,11,07,9.20
2010,03,04,11,08,9.20
2010,03,04,11,09,9.30
2010,03,04,11,10,9.30
2010,03,04,11,11,9.10
2010,03,04,11,12,9.00
2010,03,04,11,13,9.00
2010,03,04,11,14,9.00
2010,03,04,11,15,9.00
2010,03,04,11,16,9.10
2010,03,04,11,17,9.20
2010,03,04,11,18,9.20
2010,03,04,11,19,9.20
2010,03,04,11,20,9.30
2010,03,04,11,21,9.30
2010,03,04,11,22,9.30
2010,03,04,11,23,9.30
2010,03,04,11,24,9.40
2010,03,04,11,25,9.40
2010,03,04,11,26,9.30
2010,03,04,11,27,9.20
2010,03,04,11,28,9.10
2010,03,04,11,29,9.10
2010,03,04,11,30,9.20
2010,03,04,11,31,9.10
2010,03,04,11,32,9.10
2010,03,04,11,33,9.20
2010,03,04,11,34,9.20
2010,03,04,11,35,9.20
2010,03,04,11,36,9.30
2010,03,04,11,37,9.40
2010,03,04,11,38,9.50
2010,03,04,11,39,9.50
2010,03,04,11,40,9.50
2010,03,04,11,41,9.50
2010,03,04,11,42,9.50
2010,03,04,11,43,9.40
2010,03,04,11,44,9.40
2010,03,04,11,45,9.30
2010,03,04,11,46,9.30
2010,03,04,11,47,9.30
2010,03,04,11,48,9.40
2010,03,04,11,49,9.40
2010,03,04,11,50,9.40
2010,03,04,11,51,9.50
2010,03,04,11,52,9.60
2010,03,04,11,53,9.70
2010,03,04,11,54,9.70
2010,03,04,11,55,9.70
2010,03,04,11,56,9.70
2010,03,04,11,57,9.70
2010,03,04,11,58,9.70
2010,03,04,11,59,9.70
2010,03,04,12,00,9.60
2010,03,04,12,01,9.50
2010,03,04,12,02,9.20
2010,03,04,12,03,9.10
2010,03,04,12,04,9.10
2010,03,04,12,05,9.20
2010,03,04,12,06,9.20
2010,03,04,12,07,9.30
2010,03,04,12,08,9.50
2010,03,04,12,09,9.60
2010,03,04,12,10,9.60
2010,03,04,12,11,9.70
2010,03,04,12,12,9.70
2010,03,04,12,13,9.50
2010,03,04,12,14,9.40
2010,03,04,12,15,9.30
2010,03,04,12,16,9.20
2010,03,04,12,17,9.20
2010,03,04,12,18,9.10
2010,03,04,12,19,9.10
2010,03,04,12,20,9.10
2010,03,04,12,21,9.10
2010,03,04,12,22,9.10
2010,03,04,12,23,9.10
2010,03,04,12,24,9.10
2010,03,04,12,25,9.20
2010,03,04,12,26,9.20
2010,03,04,12,27,9.10
2010,03,04,12,28,9.20
2010,03,04,12,29,9.20
2010,03,04,12,30,9.20
2010,03,04,12,31,9.20
2010,03,04,12,32,9.30
2010,03,04,12,33,9.30
2010,03,04,12,34,9.30
2010,03,04,12,35,9.30
2010,03,04,12,36,9.30
2010,03,04,12,37,9.30
2010,03,04,12,38,9.20
2010,03,04,12,39,9.20
2010,03,04,12,40,9.20
2010,03,04,12,41,9.30
2010,03,04,12,42,9.40
2010,03,04,12,43,9.50
2010,03,04,12,44,9.50
2010,03,04,12,45,9.40
2010,03,04,12,46,9.30
2010,03,04,12,47,9.40
2010,03,04,12,48,9.40
2010,03,04,12,49,9.30
2010,03,04,12,50,9.30
2010,03,04,12,51,9.40
2010,03,04,12,52,9.40
2010,03,04,12,53,9.40
2010,03,04,12,54,9.40
2010,03,04,12,55,9.40
2010,03,04,12,56,9.50
2010,03,04,12,57,9.60
2010,03,04,12,58,9.60
2010,03,04,12,59,9.60
2010,03,04,13,00,9.50
2010,03,04,13,01,9.40
2010,03,04,13,02,9.30
2010,03,04,13,03,9.30
2010,03,04,13,04,9.30
2010,03,04,13,05,9.30
2010,03,04,13,06,9.20
2010,03,04,13,07,9.30
2010,03,04,13,08,9.40
2010,03,04,13,09,9.50
2010,03,04,13,10,9.70
2010,03,04,13,11,9.70
2010,03,04,13,12,9.80
2010,03,04,13,13,9.90
2010,03,04,13,14,9.80
2010,03,04,13,15,9.70
2010,03,04,13,16,9.70
2010,03,04,13,17,9.70
2010,03,04,13,18,9.70
2010,03,04,13,19,9.70
2010,03,04,13,20,9.70
2010,03,04,13,21,9.70
2010,03,04,13,22,9.60
2010,03,04,13,23,9.60
2010,03,04,13,24,9.60
2010,03,04,13,25,9.60
2010,03,04,13,26,9.70
2010,03,04,13,27,9.70
2010,03,04,13,28,9.70
2010,03,04,13,29,9.70
2010,03,04,13,30,9.80
2010,03,04,13,31,9.80
2010,03,04,13,32,9.70
2010,03,04,13,33,9.60
2010,03,04,13,34,9.60
2010,03,04,13,35,9.60
2010,03,04,13,36,9.70
2010,03,04,13,37,9.70
2010,03,04,13,38,9.70
2010,03,04,13,39,9.70
2010,03,04,13,40,9.80
2010,03,04,13,41,9.80
2010,03,04,13,42,9.80
2010,03,04,13,43,9.70
2010,03,04,13,44,9.80
2010,03,04,13,45,9.80
2010,03,04,13,46,9.90
2010,03,04,13,47,9.90
2010,03,04,13,48,9.90
2010,03,04,13,49,9.80
2010,03,04,13,50,9.80
2010,03,04,13,51,9.80
2010,03,04,13,52,9.80
2010,03,04,13,53,9.80
2010,03,04,13,54,9.80
2010,03,04,13,55,9.90
2010,03,04,13,56,10.00
2010,03,04,13,57,10.10
2010,03,04,13,58,10.10
2010,03,04,13,59,10.10
2010,03,04,14,00,10.10
2010,03,04,14,01,10.10
2010,03,04,14,02,10.10
2010,03,04,14,03,10.10
2010,03,04,14,04,10.10
2010,03,04,14,05,10.10
2010,03,04,14,06,10.10
2010,03,04,14,07,10.20
2010,03,04,14,08,10.20
2010,03,04,14,09,10.20
2010,03,04,14,10,10.10
2010,03,04,14,11,10.10
2010,03,04,14,12,10.00
2010,03,04,14,13,9.90
2010,03,04,14,14,9.90
2010,03,04,14,15,9.80
2010,03,04,14,16,9.80
2010,03,04,14,17,9.80
2010,03,04,14,18,9.80
2010,03,04,14,19,9.90
2010,03,04,14,20,9.90
2010,03,04,14,21,9.90
2010,03,04,14,22,9.90
2010,03,04,14,23,9.90
2010,03,04,14,24,10.00
2010,03,04,14,25,10.10
2010,03,04,14,26,10.10
2010,03,04,14,27,10.10
2010,03,04,14,28,10.10
2010,03,04,14,29,10.00
2010,03,04,14,30,9.90
2010,03,04,14,31,10.00
2010,03,04,14,32,10.10
2010,03,04,14,33,10.10
2010,03,04,14,34,10.20
2010,03,04,14,35,10.20
2010,03,04,14,36,10.20
2010,03,04,14,37,10.20
2010,03,04,14,38,10.20
2010,03,04,14,39,10.10
2010,03,04,14,40,10.10
2010,03,04,14,41,10.10
2010,03,04,14,42,10.10
2010,03,04,14,43,10.10
2010,03,04,14,44,10.10
2010,03,04,14,45,10.10
2010,03,04,14,46,10.10
2010,03,04,14,47,10.10
2010,03,04,14,48,10.10
2010,03,04,14,49,10.10
2010,03,04,14,50,10.10
2010,03,04,14,51,10.00
2010,03,04,14,52,9.90
2010,03,04,14,53,9.90
2010,03,04,14,54,10.00
2010,03,04,14,55,10.10
2010,03,04,14,56,10.10
2010,03,04,14,57,10.20
2010,03,04,14,58,10.20
2010,03,04,14,59,10.20
2010,03,04,15,00,10.10
2010,03,04,15,01,10.00
2010,03,04,15,02,9.90
2010,03,04,15,03,9.90
2010,03,04,15,04,9.90
2010,03,04,15,05,9.90
2010,03,04,15,06,9.90
2010,03,04,15,07,9.80
2010,03,04,15,08,9.70
2010,03,04,15,09,9.70
2010,03,04,15,10,9.70
2010,03,04,15,11,9.60
2010,03,04,15,12,9.60
2010,03,04,15,13,9.70
2010,03,04,15,14,9.60
2010,03,04,15,15,9.50
2010,03,04,15,16,9.50
2010,03,04,15,17,9.60
2010,03,04,15,18,9.60
2010,03,04,15,19,9.60
2010,03,04,15,20,9.50
2010,03,04,15,21,9.40
2010,03,04,15,22,9.30
2010,03,04,15,23,9.30
2010,03,04,15,24,9.20
2010,03,04,15,25,9.20
2010,03,04,15,26,9.20
2010,03,04,15,27,9.20
2010,03,04,15,28,9.20
2010,03,04,15,29,9.10
2010,03,04,15,30,9.00
2010,03,04,15,31,9.00
2010,03,04,15,32,9.10
2010,03,04,15,33,9.00
2010,03,04,15,34,9.00
2010,03,04,15,35,9.00
2010,03,04,15,36,9.00
2010,03,04,15,37,9.00
2010,03,04,15,38,9.00
2010,03,04,15,39,9.10
2010,03,04,15,40,9.10
2010,03,04,15,41,9.00
2010,03,04,15,42,9.00
2010,03,04,15,43,9.00
2010,03,04,15,44,8.90
2010,03,04,15,45,8.90
2010,03,04,15,46,8.90
2010,03,04,15,47,8.90
2010,03,04,15,48,8.90
2010,03,04,15,49,8.90
2010,03,04,15,50,9.00
2010,03,04,15,51,9.00
2010,03,04,15,52,9.00
2010,03,04,15,53,9.00
2010,03,04,15,54,9.10
2010,03,04,15,55,9.00
2010,03,04,15,56,9.00
2010,03,04,15,57,9.00
2010,03,04,15,58,9.00
2010,03,04,15,59,9.00
2010,03,04,16,00,9.00
2010,03,04,16,01,9.00
2010,03,04,16,02,8.90
2010,03,04,16,03,8.90
2010,03,04,16,04,8.90
2010,03,04,16,05,8.90
2010,03,04,16,06,8.90
2010,03,04,16,07,8.90
2010,03,04,16,08,8.90
2010,03,04,16,09,8.90
2010,03,04,16,10,8.90
2010,03,04,16,11,8.80
2010,03,04,16,12,8.80
2010,03,04,16,13,8.80
2010,03,04,16,14,8.90
2010,03,04,16,15,8.90
2010,03,04,16,16,9.00
2010,03,04,16,17,9.00
2010,03,04,16,18,9.00
2010,03,04,16,19,9.00
2010,03,04,16,20,8.90
2010,03,04,16,21,8.90
2010,03,04,16,22,9.00
2010,03,04,16,23,9.00
2010,03,04,16,24,8.90
2010,03,04,16,25,8.90
2010,03,04,16,26,8.90
2010,03,04,16,27,8.90
2010,03,04,16,28,8.90
2010,03,04,16,29,8.90
2010,03,04,16,30,8.90
2010,03,04,16,31,8.90
2010,03,04,16,32,8.90
2010,03,04,16,33,8.90
2010,03,04,16,34,8.90
2010,03,04,16,35,8.80
2010,03,04,16,36,8.80
2010,03,04,16,37,8.80
2010,03,04,16,38,8.90
2010,03,04,16,39,8.90
2010,03,04,16,40,8.90
2010,03,04,16,41,8.90
2010,03,04,16,42,9.00
2010,03,04,16,43,9.00
2010,03,04,16,44,9.00
2010,03,04,16,45,9.00
2010,03,04,16,46,8.90
2010,03,04,16,47,8.90
2010,03,04,16,48,8.90
2010,03,04,16,49,8.80
2010,03,04,16,50,8.80
2010,03,04,16,51,8.80
2010,03,04,16,52,8.90
2010,03,04,16,53,8.90
2010,03,04,16,54,8.90
2010,03,04,16,55,9.00
2010,03,04,16,56,9.00
2010,03,04,16,57,8.90
2010,03,04,16,58,9.00
2010,03,04,16,59,9.00
2010,03,04,17,00,9.00
2010,03,04,17,01,9.00
2010,03,04,17,02,8.90
2010,03,04,17,03,8.80
2010,03,04,17,04,8.80
2010,03,04,17,05,8.80
2010,03,04,17,06,8.80
2010,03,04,17,07,8.70
2010,03,04,17,08,8.70
2010,03,04,17,09,8.70
2010,03,04,17,10,8.70
2010,03,04,17,11,8.70
2010,03,04,17,12,8.70
2010,03,04,17,13,8.70
2010,03,04,17,14,8.70
2010,03,04,17,15,8.70
2010,03,04,17,16,8.70
2010,03,04,17,17,8.70
2010,03,04,17,18,8.60
2010,03,04,17,19,8.60
2010,03,04,17,20,8.70
2010,03,04,17,21,8.70
2010,03,04,17,22,8.70
2010,03,04,17,23,8.60
2010,03,04,17,24,8.60
2010,03,04,17,25,8.60
2010,03,04,17,26,8.60
2010,03,04,17,27,8.60
2010,03,04,17,28,8.60
2010,03,04,17,29,8.60
2010,03,04,17,30,8.60
2010,03,04,17,31,8.60
2010,03,04,17,32,8.60
2010,03,04,17,33,8.60
2010,03,04,17,34,8.60
2010,03,04,17,35,8.60
2010,03,04,17,36,8.60
2010,03,04,17,37,8.70
2010,03,04,17,38,8.70
2010,03,04,17,39,8.70
2010,03,04,17,40,8.70
2010,03,04,17,41,8.70
2010,03,04,17,42,8.70
2010,03,04,17,43,8.70
2010,03,04,17,44,8.70
2010,03,04,17,45,8.70
2010,03,04,17,46,8.70
2010,03,04,17,47,8.70
2010,03,04,17,48,8.70
2010,03,04,17,49,8.70
2010,03,04,17,50,8.70
2010,03,04,17,51,8.70
2010,03,04,17,52,8.70
2010,03,04,17,53,8.70
2010,03,04,17,54,8.70
2010,03,04,17,55,8.70
2010,03,04,17,56,8.70
2010,03,04,17,57,8.70
2010,03,04,17,58,8.70
2010,03,04,17,59,8.70
2010,03,04,18,00,8.60
2010,03,04,18,01,8.60
2010,03,04,18,02,8.60
2010,03,04,18,03,8.60
2010,03,04,18,04,8.60